PBD841 UUWW-EFHK

Flight info

Callsign PBD841
Flight time 1h 27m
Altitude 38000
Route SUNUN3W SUNUN M869 RAVKA N50 NUDKO T561 ODATI P145 ATLUM T561 LEDUN DCT ROPAM
Aircraft B738/M-SDE2E3FGHIRWXY/LB1

Departure

Time 2026-04-23 17:37
Airport Vnukovo International Airport (UUWW)

Arrival

Time 2026-04-23 19:04
Airport Helsinki Vantaa Airport (EFHK)
Time Latitude Longitude Altitude Speed Heading
2026-04-23 15:56 55.60152 37.28267 679 ft 0 kts 319°
2026-04-23 17:21 55.60134 37.28299 675 ft 4 kts 308°
2026-04-23 17:22 55.60120 37.28339 675 ft 4 kts 293°
2026-04-23 17:22 55.60113 37.28431 674 ft 4 kts 256°
2026-04-23 17:23 55.60137 37.28512 677 ft 4 kts 227°
2026-04-23 17:23 55.60142 37.28522 676 ft 0 kts 225°
2026-04-23 17:28 55.60138 37.28514 676 ft 3 kts 225°
2026-04-23 17:29 55.60112 37.28467 679 ft 8 kts 229°
2026-04-23 17:29 55.60085 37.28348 679 ft 13 kts 262°
2026-04-23 17:29 55.60091 37.28006 677 ft 14 kts 298°
2026-04-23 17:30 55.60112 37.27935 679 ft 7 kts 283°
2026-04-23 17:30 55.60037 37.27760 679 ft 11 kts 212°
2026-04-23 17:30 55.59972 37.27658 678 ft 14 kts 230°
2026-04-23 17:31 55.59902 37.27499 676 ft 19 kts 226°
2026-04-23 17:31 55.59803 37.27315 673 ft 18 kts 227°
2026-04-23 17:31 55.59705 37.27135 669 ft 22 kts 226°
2026-04-23 17:31 55.59595 37.26932 668 ft 23 kts 229°
2026-04-23 17:32 55.59519 37.26736 668 ft 18 kts 246°
2026-04-23 17:32 55.59473 37.26529 666 ft 18 kts 248°
2026-04-23 17:32 55.59427 37.26324 668 ft 19 kts 248°
2026-04-23 17:32 55.59371 37.26078 666 ft 24 kts 248°
2026-04-23 17:33 55.59302 37.25773 665 ft 29 kts 248°
2026-04-23 17:33 55.59230 37.25450 664 ft 29 kts 249°
2026-04-23 17:33 55.59157 37.25122 658 ft 28 kts 249°
2026-04-23 17:33 55.59087 37.24811 658 ft 26 kts 248°
2026-04-23 17:34 55.59031 37.24565 658 ft 13 kts 248°
2026-04-23 17:34 55.59000 37.24504 658 ft 7 kts 192°
2026-04-23 17:34 55.58913 37.24564 658 ft 7 kts 149°
2026-04-23 17:35 55.58864 37.24617 658 ft 12 kts 150°
2026-04-23 17:35 55.58838 37.24736 658 ft 0 kts 68°
2026-04-23 17:36 55.58851 37.24797 658 ft 22 kts 69°
2026-04-23 17:36 55.59003 37.25468 662 ft 94 kts 69°
2026-04-23 17:36 55.59322 37.26891 665 ft 153 kts 68°
2026-04-23 17:36 55.59765 37.28777 1020 ft 175 kts 65°
2026-04-23 17:37 55.60215 37.30814 1656 ft 182 kts 63°
2026-04-23 17:37 55.60685 37.32900 2458 ft 181 kts 61°
2026-04-23 17:37 55.61622 37.37067 4173 ft 184 kts 64°
2026-04-23 17:38 55.61811 37.39342 4995 ft 189 kts 75°
2026-04-23 17:38 55.62434 37.41213 5829 ft 177 kts 30°
2026-04-23 17:38 55.63661 37.41663 6131 ft 196 kts 346°
2026-04-23 17:38 55.64854 37.40284 6399 ft 220 kts 315°
2026-04-23 17:39 55.65803 37.38020 6640 ft 246 kts 296°
2026-04-23 17:39 55.66031 37.34886 7214 ft 264 kts 267°
2026-04-23 17:39 55.65808 37.31680 8144 ft 264 kts 265°
2026-04-23 17:39 55.65585 37.28438 9125 ft 265 kts 266°
2026-04-23 17:40 55.65383 37.25163 9939 ft 269 kts 266°
2026-04-23 17:40 55.65200 37.21854 10710 ft 273 kts 267°
2026-04-23 17:40 55.65029 37.18475 11510 ft 276 kts 268°
2026-04-23 17:40 55.64867 37.15115 12299 ft 279 kts 268°
2026-04-23 17:41 55.64702 37.11673 13078 ft 282 kts 268°
2026-04-23 17:41 55.64832 37.04782 13521 ft 284 kts 295°
2026-04-23 17:41 55.65991 37.01843 13689 ft 302 kts 319°
2026-04-23 17:42 55.69842 36.98370 14791 ft 318 kts 333°
2026-04-23 17:42 55.71703 36.96129 15188 ft 333 kts 317°
2026-04-23 17:42 55.73370 36.93103 15451 ft 350 kts 313°
2026-04-23 17:43 55.75013 36.89919 15990 ft 358 kts 312°
2026-04-23 17:43 55.76695 36.86628 16717 ft 360 kts 312°
2026-04-23 17:43 55.78391 36.83317 17387 ft 365 kts 312°
2026-04-23 17:43 55.80117 36.79969 18006 ft 369 kts 312°
2026-04-23 17:44 55.81862 36.76602 18645 ft 371 kts 312°
2026-04-23 17:44 55.83629 36.73200 19155 ft 377 kts 312°
2026-04-23 17:44 55.86602 36.67487 20174 ft 382 kts 312°
2026-04-23 17:45 55.89036 36.62805 20881 ft 387 kts 312°
2026-04-23 17:45 55.92716 36.55708 21891 ft 396 kts 311°
2026-04-23 17:45 55.94594 36.52081 22449 ft 399 kts 311°
2026-04-23 17:46 55.97775 36.45920 23264 ft 406 kts 311°
2026-04-23 17:46 55.99657 36.42269 23724 ft 407 kts 312°
2026-04-23 17:46 56.01588 36.38515 24234 ft 408 kts 312°
2026-04-23 17:47 56.03509 36.34778 24682 ft 410 kts 312°
2026-04-23 17:47 56.05438 36.31016 25134 ft 412 kts 313°
2026-04-23 17:47 56.09344 36.23383 25878 ft 418 kts 313°
2026-04-23 17:48 56.11311 36.19530 26331 ft 419 kts 313°
2026-04-23 17:48 56.13286 36.15653 26663 ft 423 kts 313°
2026-04-23 17:48 56.15112 36.11484 26984 ft 428 kts 304°
2026-04-23 17:48 56.16549 36.06787 27401 ft 431 kts 296°
2026-04-23 17:49 56.17813 36.01864 27561 ft 436 kts 296°
2026-04-23 17:49 56.19086 35.96992 27581 ft 437 kts 299°
2026-04-23 17:49 56.20679 35.92393 27574 ft 431 kts 309°
2026-04-23 17:49 56.22630 35.88355 27597 ft 426 kts 316°
2026-04-23 17:50 56.24901 35.84883 27732 ft 429 kts 325°
2026-04-23 17:50 56.29752 35.78561 28589 ft 430 kts 325°
2026-04-23 17:50 56.32173 35.75383 28959 ft 431 kts 325°
2026-04-23 17:51 56.34567 35.72206 29307 ft 434 kts 325°
2026-04-23 17:51 56.36997 35.68958 29696 ft 434 kts 325°
2026-04-23 17:51 56.41830 35.62466 30438 ft 432 kts 325°
2026-04-23 17:52 56.44247 35.59217 30746 ft 433 kts 325°
2026-04-23 17:52 56.49076 35.52712 31397 ft 432 kts 325°
2026-04-23 17:52 56.51332 35.49665 31713 ft 432 kts 325°
2026-04-23 17:53 56.56157 35.43137 32357 ft 432 kts 325°
2026-04-23 17:53 56.58569 35.39859 32651 ft 433 kts 325°
2026-04-23 17:53 56.60970 35.36565 32967 ft 432 kts 325°
2026-04-23 17:54 56.63339 35.33297 33277 ft 432 kts 325°
2026-04-23 17:54 56.65732 35.29984 33580 ft 432 kts 325°
2026-04-23 17:54 56.70518 35.23348 34073 ft 432 kts 325°
2026-04-23 17:55 56.75304 35.16698 34558 ft 432 kts 325°
2026-04-23 17:55 56.77689 35.13377 34778 ft 432 kts 325°
2026-04-23 17:55 56.80082 35.10040 35011 ft 432 kts 325°
2026-04-23 17:56 56.82433 35.06756 35249 ft 431 kts 325°
2026-04-23 17:56 56.87204 35.00076 35680 ft 432 kts 325°
2026-04-23 17:56 56.89588 34.96730 35907 ft 431 kts 325°
2026-04-23 17:57 56.91991 34.93438 36132 ft 430 kts 327°
2026-04-23 17:57 56.94459 34.90359 36332 ft 430 kts 329°
2026-04-23 17:57 56.99492 34.84428 36749 ft 429 kts 330°
2026-04-23 17:58 57.02005 34.81485 36977 ft 428 kts 329°
2026-04-23 17:58 57.04473 34.78573 37195 ft 427 kts 329°
2026-04-23 17:58 57.06978 34.75595 37350 ft 428 kts 329°
2026-04-23 17:58 57.09476 34.72605 37517 ft 428 kts 329°
2026-04-23 17:59 57.11969 34.69608 37664 ft 429 kts 329°
2026-04-23 17:59 57.16973 34.63563 37676 ft 429 kts 329°
2026-04-23 18:00 57.21958 34.57517 37674 ft 427 kts 329°
2026-04-23 18:00 57.26890 34.51518 37680 ft 425 kts 329°
2026-04-23 18:01 57.31826 34.45495 37683 ft 424 kts 329°
2026-04-23 18:01 57.36748 34.39470 37685 ft 423 kts 329°
2026-04-23 18:02 57.41623 34.33485 37690 ft 422 kts 329°
2026-04-23 18:02 57.46519 34.27453 37694 ft 422 kts 329°
2026-04-23 18:03 57.51411 34.21407 37694 ft 422 kts 329°
2026-04-23 18:03 57.56311 34.15330 37701 ft 423 kts 329°
2026-04-23 18:04 57.61215 34.09229 37699 ft 423 kts 329°
2026-04-23 18:04 57.66083 34.03153 37706 ft 424 kts 329°
2026-04-23 18:05 57.70962 33.97042 37714 ft 425 kts 329°
2026-04-23 18:05 57.75869 33.90874 37708 ft 425 kts 329°
2026-04-23 18:06 57.80785 33.84677 37725 ft 425 kts 329°
2026-04-23 18:06 57.85620 33.78273 37707 ft 428 kts 322°
2026-04-23 18:07 57.89596 33.69870 37724 ft 436 kts 308°
2026-04-23 18:07 57.92890 33.60280 37728 ft 436 kts 307°
2026-04-23 18:08 57.95602 33.52291 37725 ft 435 kts 308°
2026-04-23 18:08 57.99413 33.41181 37723 ft 433 kts 308°
2026-04-23 18:09 58.02705 33.31664 37730 ft 432 kts 308°
2026-04-23 18:09 58.05991 33.22174 37734 ft 431 kts 308°
2026-04-23 18:10 58.09261 33.12688 37740 ft 430 kts 308°
2026-04-23 18:10 58.12513 33.03208 37733 ft 429 kts 308°
2026-04-23 18:11 58.15731 32.93783 37731 ft 428 kts 308°
2026-04-23 18:11 58.18957 32.84300 37748 ft 428 kts 308°
2026-04-23 18:12 58.22178 32.74791 37745 ft 428 kts 308°
2026-04-23 18:12 58.25388 32.65278 37746 ft 428 kts 308°
2026-04-23 18:13 58.28594 32.55738 37754 ft 428 kts 308°
2026-04-23 18:13 58.31801 32.46156 37754 ft 429 kts 308°
2026-04-23 18:14 58.34976 32.36632 37759 ft 429 kts 308°
2026-04-23 18:14 58.38171 32.27009 37762 ft 430 kts 308°
2026-04-23 18:15 58.41361 32.17360 37762 ft 430 kts 308°
2026-04-23 18:15 58.44547 32.07685 37768 ft 430 kts 308°
2026-04-23 18:16 58.47724 31.97996 37773 ft 430 kts 308°
2026-04-23 18:16 58.50899 31.88275 37774 ft 430 kts 308°
2026-04-23 18:17 58.55617 31.73753 37782 ft 429 kts 308°
2026-04-23 18:17 58.58757 31.64039 37779 ft 428 kts 308°
2026-04-23 18:18 58.61881 31.54332 37781 ft 427 kts 308°
2026-04-23 18:18 58.64988 31.44641 37787 ft 425 kts 308°
2026-04-23 18:19 58.68080 31.34955 37789 ft 424 kts 308°
2026-04-23 18:19 58.71152 31.25293 37795 ft 423 kts 308°
2026-04-23 18:20 58.74213 31.15628 37801 ft 422 kts 308°
2026-04-23 18:20 58.77255 31.05982 37797 ft 421 kts 308°
2026-04-23 18:21 58.80268 30.96388 37793 ft 421 kts 308°
2026-04-23 18:21 58.83293 30.86720 37797 ft 420 kts 308°
2026-04-23 18:22 58.86311 30.77031 37804 ft 420 kts 308°
2026-04-23 18:22 58.89316 30.67342 37809 ft 420 kts 308°
2026-04-23 18:23 58.93798 30.52821 37811 ft 421 kts 307°
2026-04-23 18:24 58.98296 30.38152 37813 ft 422 kts 307°
2026-04-23 18:25 59.02776 30.23450 37813 ft 422 kts 307°
2026-04-23 18:25 59.05740 30.13673 37812 ft 423 kts 307°
2026-04-23 18:26 59.08725 30.03786 37819 ft 423 kts 307°
2026-04-23 18:26 59.11696 29.93900 37821 ft 423 kts 307°
2026-04-23 18:27 59.14660 29.83996 37819 ft 423 kts 307°
2026-04-23 18:27 59.17619 29.74064 37816 ft 423 kts 307°
2026-04-23 18:28 59.20546 29.64200 37824 ft 422 kts 307°
2026-04-23 18:28 59.23495 29.54216 37825 ft 422 kts 307°
2026-04-23 18:29 59.26398 29.44350 37822 ft 421 kts 307°
2026-04-23 18:29 59.29304 29.34429 37816 ft 419 kts 307°
2026-04-23 18:29 59.30736 29.29512 37655 ft 411 kts 307°
2026-04-23 18:30 59.32140 29.24682 37359 ft 406 kts 307°
2026-04-23 18:30 59.33535 29.19880 37103 ft 406 kts 307°
2026-04-23 18:30 59.34927 29.15087 37067 ft 402 kts 307°
2026-04-23 18:31 59.37706 29.05499 37056 ft 407 kts 307°
2026-04-23 18:31 59.39114 29.00633 36953 ft 412 kts 307°
2026-04-23 18:31 59.40511 28.95787 36802 ft 413 kts 307°
2026-04-23 18:31 59.41914 28.90892 36653 ft 408 kts 307°
2026-04-23 18:32 59.43292 28.86063 36556 ft 401 kts 307°
2026-04-23 18:32 59.45986 28.76607 36503 ft 395 kts 307°
2026-04-23 18:32 59.47335 28.71882 36345 ft 399 kts 307°
2026-04-23 18:33 59.48700 28.67099 36091 ft 401 kts 307°
2026-04-23 18:33 59.50048 28.62342 35833 ft 395 kts 308°
2026-04-23 18:33 59.50927 28.59227 35666 ft 391 kts 308°
2026-04-23 18:33 59.52234 28.54586 35416 ft 383 kts 308°
2026-04-23 18:34 59.53513 28.50034 35173 ft 377 kts 308°
2026-04-23 18:34 59.54779 28.45535 34934 ft 372 kts 308°
2026-04-23 18:34 59.56032 28.41074 34692 ft 368 kts 309°
2026-04-23 18:34 59.57266 28.36677 34457 ft 364 kts 309°
2026-04-23 18:35 59.58471 28.32372 34218 ft 360 kts 309°
2026-04-23 18:35 59.59671 28.28072 33830 ft 353 kts 309°
2026-04-23 18:35 59.60849 28.23843 33195 ft 348 kts 310°
2026-04-23 18:35 59.62007 28.19682 32562 ft 344 kts 310°
2026-04-23 18:36 59.63149 28.15569 32026 ft 338 kts 311°
2026-04-23 18:36 59.64265 28.11534 31520 ft 331 kts 312°
2026-04-23 18:36 59.65357 28.07586 31012 ft 324 kts 312°
2026-04-23 18:36 59.66430 28.03701 30503 ft 318 kts 313°
2026-04-23 18:37 59.67480 27.99896 30008 ft 312 kts 314°
2026-04-23 18:37 59.68513 27.96149 29421 ft 307 kts 314°
2026-04-23 18:37 59.69534 27.92451 28711 ft 306 kts 313°
2026-04-23 18:37 59.70555 27.88751 27978 ft 305 kts 313°
2026-04-23 18:38 59.71568 27.85067 27302 ft 304 kts 312°
2026-04-23 18:38 59.72564 27.81433 26682 ft 302 kts 312°
2026-04-23 18:38 59.73564 27.77778 26082 ft 303 kts 311°
2026-04-23 18:38 59.74569 27.74099 25634 ft 303 kts 311°
2026-04-23 18:39 59.75574 27.70412 25219 ft 304 kts 310°
2026-04-23 18:39 59.76515 27.66629 24858 ft 309 kts 304°
2026-04-23 18:40 59.76691 27.65741 24778 ft 312 kts 302°
2026-04-23 18:40 59.77329 27.61619 24445 ft 315 kts 299°
2026-04-23 18:40 59.77916 27.57422 24099 ft 315 kts 298°
2026-04-23 18:41 59.78490 27.53230 23761 ft 314 kts 298°
2026-04-23 18:41 59.79055 27.49101 23424 ft 313 kts 297°
2026-04-23 18:41 59.79629 27.44912 23020 ft 312 kts 297°
2026-04-23 18:41 59.80201 27.40754 22641 ft 311 kts 297°
2026-04-23 18:42 59.80771 27.36621 22290 ft 309 kts 297°
2026-04-23 18:42 59.81335 27.32519 21955 ft 307 kts 297°
2026-04-23 18:42 59.81898 27.28437 21610 ft 305 kts 297°
2026-04-23 18:42 59.82447 27.24444 21275 ft 303 kts 297°
2026-04-23 18:43 59.83003 27.20403 20940 ft 302 kts 297°
2026-04-23 18:43 59.83555 27.16380 20613 ft 301 kts 297°
2026-04-23 18:43 59.84103 27.12374 20292 ft 300 kts 297°
2026-04-23 18:43 59.84649 27.08379 19957 ft 299 kts 297°
2026-04-23 18:44 59.85192 27.04395 19628 ft 298 kts 297°
2026-04-23 18:44 59.85732 27.00421 19300 ft 297 kts 297°
2026-04-23 18:44 59.86271 26.96448 18979 ft 297 kts 297°
2026-04-23 18:44 59.86808 26.92477 18653 ft 297 kts 296°
2026-04-23 18:45 59.87343 26.88513 18331 ft 296 kts 296°
2026-04-23 18:45 59.87877 26.84548 17978 ft 296 kts 296°
2026-04-23 18:45 59.88409 26.80584 17613 ft 296 kts 296°
2026-04-23 18:45 59.88938 26.76628 17268 ft 295 kts 296°
2026-04-23 18:46 59.89464 26.72679 16930 ft 294 kts 295°
2026-04-23 18:46 59.89981 26.68795 16608 ft 293 kts 295°
2026-04-23 18:46 59.90501 26.64876 16288 ft 292 kts 295°
2026-04-23 18:46 59.91019 26.60965 15976 ft 291 kts 295°
2026-04-23 18:47 59.91534 26.57067 15647 ft 290 kts 295°
2026-04-23 18:47 59.92046 26.53177 15331 ft 290 kts 294°
2026-04-23 18:47 59.92557 26.49290 15010 ft 289 kts 294°
2026-04-23 18:47 59.93065 26.45416 14693 ft 289 kts 294°
2026-04-23 18:48 59.93573 26.41535 14378 ft 289 kts 293°
2026-04-23 18:48 59.94079 26.37655 14059 ft 289 kts 293°
2026-04-23 18:48 59.94584 26.33775 13747 ft 289 kts 293°
2026-04-23 18:48 59.95087 26.29899 13394 ft 289 kts 292°
2026-04-23 18:49 59.95591 26.26013 13047 ft 289 kts 292°
2026-04-23 18:49 59.96093 26.22131 12714 ft 288 kts 292°
2026-04-23 18:49 59.96585 26.18304 12395 ft 287 kts 292°
2026-04-23 18:49 59.97081 26.14443 12071 ft 287 kts 292°
2026-04-23 18:50 59.97418 26.11910 11913 ft 281 kts 295°
2026-04-23 18:50 59.98555 26.07498 11865 ft 259 kts 309°
2026-04-23 18:50 59.99506 26.04501 11849 ft 250 kts 309°
2026-04-23 18:50 60.00424 26.01622 11840 ft 242 kts 309°
2026-04-23 18:51 60.01344 25.98741 11874 ft 253 kts 309°
2026-04-23 18:51 60.02312 25.95697 11878 ft 264 kts 309°
2026-04-23 18:51 60.03128 25.92325 11834 ft 282 kts 292°
2026-04-23 18:51 60.03541 25.88472 11587 ft 285 kts 288°
2026-04-23 18:52 60.03897 25.84566 11217 ft 285 kts 287°
2026-04-23 18:52 60.04249 25.80644 10791 ft 287 kts 287°
2026-04-23 18:52 60.04605 25.76717 10437 ft 286 kts 287°
2026-04-23 18:52 60.04964 25.72815 10088 ft 285 kts 287°
2026-04-23 18:53 60.05326 25.68927 9760 ft 284 kts 287°
2026-04-23 18:53 60.05692 25.65038 9411 ft 282 kts 287°
2026-04-23 18:53 60.06053 25.61199 9151 ft 280 kts 286°
2026-04-23 18:53 60.06393 25.57604 8948 ft 279 kts 286°
2026-04-23 18:54 60.06753 25.53792 8754 ft 279 kts 286°
2026-04-23 18:54 60.07113 25.49981 8552 ft 279 kts 286°
2026-04-23 18:54 60.07474 25.46155 8365 ft 280 kts 285°
2026-04-23 18:54 60.07818 25.42507 8174 ft 280 kts 285°
2026-04-23 18:55 60.08193 25.38505 7974 ft 281 kts 285°
2026-04-23 18:55 60.08552 25.34669 7789 ft 281 kts 285°
2026-04-23 18:55 60.08910 25.30821 7585 ft 281 kts 284°
2026-04-23 18:55 60.09269 25.26962 7393 ft 282 kts 284°
2026-04-23 18:56 60.09505 25.24408 7265 ft 282 kts 284°
2026-04-23 18:56 60.09973 25.19331 6997 ft 277 kts 284°
2026-04-23 18:56 60.10319 25.15561 6807 ft 273 kts 284°
2026-04-23 18:56 60.10662 25.11822 6536 ft 272 kts 283°
2026-04-23 18:57 60.11001 25.08110 6084 ft 271 kts 283°
2026-04-23 18:57 60.11340 25.04386 5601 ft 270 kts 283°
2026-04-23 18:57 60.11674 25.00702 5227 ft 266 kts 283°
2026-04-23 18:57 60.12002 24.97073 4962 ft 263 kts 283°
2026-04-23 18:58 60.12330 24.93464 4731 ft 262 kts 283°
2026-04-23 18:58 60.12654 24.89870 4504 ft 262 kts 283°
2026-04-23 18:58 60.12972 24.86300 4277 ft 255 kts 283°
2026-04-23 18:58 60.13278 24.82859 4050 ft 245 kts 283°
2026-04-23 18:59 60.13575 24.79588 3851 ft 235 kts 287°
2026-04-23 18:59 60.14290 24.76778 3720 ft 224 kts 313°
2026-04-23 18:59 60.15438 24.74705 3569 ft 222 kts 324°
2026-04-23 18:59 60.16694 24.72809 3357 ft 229 kts 324°
2026-04-23 19:00 60.17966 24.70888 3135 ft 225 kts 323°
2026-04-23 19:00 60.19313 24.69505 2930 ft 218 kts 355°
2026-04-23 19:00 60.20766 24.70251 2870 ft 224 kts 24°
2026-04-23 19:00 60.22188 24.71725 2538 ft 233 kts 27°
2026-04-23 19:01 60.23494 24.73507 2328 ft 219 kts 39°
2026-04-23 19:01 60.24559 24.75558 2146 ft 211 kts 43°
2026-04-23 19:01 60.25549 24.77691 1866 ft 205 kts 45°
2026-04-23 19:01 60.26460 24.79711 1643 ft 186 kts 45°
2026-04-23 19:02 60.27031 24.80980 1431 ft 181 kts 45°
2026-04-23 19:02 60.28117 24.83396 1110 ft 167 kts 45°
2026-04-23 19:02 60.28805 24.84894 938 ft 151 kts 45°
2026-04-23 19:02 60.29487 24.86396 721 ft 144 kts 46°
2026-04-23 19:03 60.30169 24.87903 494 ft 145 kts 46°
2026-04-23 19:03 60.30850 24.89405 308 ft 145 kts 46°
2026-04-23 19:03 60.31528 24.90888 149 ft 139 kts 47°
2026-04-23 19:03 60.32073 24.92098 156 ft 86 kts 48°
2026-04-23 19:04 60.32353 24.92723 169 ft 44 kts 51°
2026-04-23 19:04 60.32443 24.93091 174 ft 24 kts 74°
2026-04-23 19:04 60.32474 24.93371 173 ft 14 kts 77°
2026-04-23 19:04 60.32489 24.93504 172 ft 9 kts 76°
2026-04-23 19:05 60.32498 24.93580 171 ft 0 kts 78°
2026-04-23 19:05 60.32498 24.93584 171 ft 2 kts 78°
2026-04-23 19:06 60.32504 24.93648 171 ft 8 kts 81°
2026-04-23 19:06 60.32519 24.93780 170 ft 10 kts 76°
2026-04-23 19:06 60.32546 24.93933 169 ft 12 kts 57°
2026-04-23 19:06 60.32609 24.94078 170 ft 15 kts 49°
2026-04-23 19:07 60.32688 24.94249 171 ft 18 kts 48°
2026-04-23 19:07 60.32779 24.94445 172 ft 16 kts 48°
2026-04-23 19:07 60.32862 24.94630 173 ft 19 kts 49°
2026-04-23 19:07 60.32923 24.94763 175 ft 12 kts 52°
2026-04-23 19:08 60.32909 24.94884 175 ft 12 kts 139°
2026-04-23 19:08 60.32817 24.94963 175 ft 16 kts 163°
2026-04-23 19:08 60.32708 24.95033 178 ft 17 kts 162°
2026-04-23 19:08 60.32593 24.95108 179 ft 17 kts 161°
2026-04-23 19:09 60.32477 24.95185 178 ft 18 kts 162°
2026-04-23 19:09 60.32354 24.95267 176 ft 19 kts 157°
2026-04-23 19:09 60.32278 24.95382 175 ft 14 kts 137°
2026-04-23 19:09 60.32204 24.95517 173 ft 8 kts 138°
2026-04-23 19:10 60.32166 24.95588 172 ft 0 kts 136°
2026-04-23 19:11 60.32159 24.95602 172 ft 4 kts 136°
2026-04-23 19:12 60.32140 24.95639 172 ft 8 kts 136°
2026-04-23 19:12 60.32070 24.95763 173 ft 12 kts 139°
2026-04-23 19:12 60.32002 24.95891 172 ft 11 kts 141°
2026-04-23 19:12 60.31976 24.95938 171 ft 5 kts 134°
2026-04-23 19:13 60.31972 24.95946 171 ft 2 kts 133°
2026-04-23 19:13 60.31943 24.95980 169 ft 7 kts 172°
2026-04-23 19:13 60.31908 24.95911 169 ft 10 kts 228°
2026-04-23 19:13 60.31840 24.95766 168 ft 17 kts 225°
2026-04-23 19:14 60.31762 24.95590 169 ft 17 kts 227°
2026-04-23 19:14 60.31684 24.95421 170 ft 16 kts 227°
2026-04-23 19:14 60.31611 24.95256 169 ft 16 kts 228°
2026-04-23 19:14 60.31539 24.95099 169 ft 15 kts 226°
2026-04-23 19:15 60.31483 24.94981 167 ft 7 kts 220°
2026-04-23 19:15 60.31445 24.94983 167 ft 5 kts 139°
2026-04-23 19:15 60.31443 24.94987 167 ft 0 kts 139°
2026-04-23 19:17 60.31442 24.94988 167 ft 1 kts 138°
2026-04-23 19:17 60.31419 24.95034 166 ft 9 kts 134°
2026-04-23 19:17 60.31361 24.95151 166 ft 14 kts 145°
2026-04-23 19:17 60.31293 24.95283 165 ft 13 kts 135°
2026-04-23 19:18 60.31225 24.95407 165 ft 13 kts 137°
2026-04-23 19:18 60.31196 24.95461 165 ft 0 kts 136°
2026-04-23 19:19 60.31190 24.95472 165 ft 3 kts 136°
2026-04-23 19:20 60.31174 24.95613 166 ft 10 kts 56°
2026-04-23 19:20 60.31225 24.95735 166 ft 12 kts 50°
2026-04-23 19:20 60.31224 24.95891 166 ft 9 kts 107°
2026-04-23 19:20 60.31226 24.95974 166 ft 9 kts 72°
2026-04-23 19:21 60.31268 24.96069 166 ft 9 kts 47°
2026-04-23 19:21 60.31289 24.96244 166 ft 6 kts 133°
2026-04-23 19:21 60.31260 24.96303 166 ft 6 kts 132°
2026-04-23 19:22 60.31265 24.96377 166 ft 6 kts 49°
2026-04-23 19:22 60.31293 24.96439 166 ft 6 kts 47°
2026-04-23 19:22 60.31300 24.96454 166 ft 0 kts 47°
2026-04-23 19:24 60.31294 24.96439 166 ft 0 kts 47°